User: anonymous   Login
Location: Erlenbrunn
(49.1717°N, 7.6142°E)
Time: 11:21:10
(UTC+00:00)
Language:

Cosmos 2237 Rocket - Orbit

View from above orbital plane
View from above orbital plane
View from above satellite
View from above satellite

Ground track
Ground track

The orbit data is extracted from the following two-line orbital elements,

1 22566U 93016B   21063.55223333  .00000189  00000-0  12221-3 0  9997
2 22566  71.0067  99.7768 0012238 236.7332 123.2618 14.14975682443126
Epoch (UTC): 04 March 2021 13:15:12
Eccentricity: 0.0012238
inclination: 71.0067°
perigee height: 833 km
apogee height: 851 km
right ascension of ascending node: 99.7768°
argument of perigee: 236.7332°
revolutions per day: 14.14975682
mean anomaly at epoch: 123.2618°
orbit number at epoch: 44312

The dashed part of the orbit path shows where the satellite is in the earth's shadow,  

DLR